Fort Benning, AL

10:47 PM CDT on August 23, 2017 (GMT -0500)
Lawson Army Air Field

Weather History for KLSF - January, 2013

Change the Weather History Date:

Thursday, January 24, 2013

  Actual Average Record
Temperature  
Mean Temperature 56 °F -  
Max Temperature 68 °F 57 °F 78 °F (2002)
Min Temperature 43 °F 33 °F 10 °F (2003)
Degree Days  
Heating Degree Days 10    
Growing Degree Days 6 (Base 50)    
Moisture  
Dew Point 44 °F    
Average Humidity 68    
Maximum Humidity 95    
Minimum Humidity 46    
Precipitation  
Precipitation 0.00 in - - ()
Sea Level Pressure  
Sea Level Pressure 30.25 in    
Wind  
Wind Speed 3 mph (WNW)    
Max Wind Speed 13 mph    
Max Gust Speed -    
Visibility 10 miles    
Events Thunderstorm    
Averages and records for this station are not official NWS values.
T = Trace of Precipitation, MM = Missing Value Source: NWS Daily Summary

Daily Weather History Graph

Daily Weather History Graph

Search for Another Location

Airport or City:

Trip Planner

Search our weather history database for the weather conditions in past years. The results will help you decide how hot, cold, wet, or windy it might be!

Date:

Astronomy

Jan. 24, 2013 Rise Set
Actual Time 7:38 AM EST 6:06 PM EST
Civil Twilight 7:12 AM EST 6:32 PM EST
Nautical Twilight 6:42 AM EST 7:01 PM EST
Astronomical Twilight 6:13 AM EST 7:31 PM EST
Moon 4:09 PM EST 5:33 AM EST
Length of Visible Light 11h 19m
Length of Day
10h 27m
Waxing Gibbous, 94% of the Moon is Illuminated
Jan 24
Waxing Gibbous
Jan 26
Full
Feb 3
Last Quarter
Feb 10
New
Feb 17
First Quarter

Hourly Weather History & Observations

Time (EST) Temp. Windchill Dew Point Humidity Pressure Visibility Wind Dir Wind Speed Gust Speed Precip Events Conditions
12:55 AM 51.8 °F - 43.3 °F 73% 30.25 in 10.0 mi Calm Calm - N/A   Mostly Cloudy
1:55 AM 46.2 °F - 41.7 °F 84% 30.24 in 10.0 mi Calm Calm - N/A   Partly Cloudy
2:55 AM 49.3 °F - 43.5 °F 81% 30.22 in 10.0 mi Calm Calm - N/A   Clear
3:55 AM 48.4 °F - 43.7 °F 84% 30.22 in 10.0 mi SSW 3.5 mph - N/A   Partly Cloudy
4:55 AM 46.0 °F - 42.8 °F 88% 30.21 in 10.0 mi Calm Calm - N/A   Partly Cloudy
5:55 AM 43.9 °F - 42.4 °F 95% 30.22 in 10.0 mi Calm Calm - N/A   Clear
6:55 AM 44.2 °F 42.7 °F 42.8 °F 95% 30.22 in 10.0 mi WSW 3.5 mph - N/A   Clear
7:55 AM 43.7 °F 42.1 °F 42.4 °F 95% 30.25 in 10.0 mi NW 3.5 mph - N/A   Mostly Cloudy
8:34 AM 48.2 °F - 46.4 °F 93% 30.26 in 10.0 mi Calm Calm - N/A   Overcast
8:55 AM 49.3 °F - 45.9 °F 88% 30.27 in 10.0 mi Calm Calm - N/A   Overcast
9:13 AM 51.8 °F - 46.4 °F 82% 30.27 in 10.0 mi West 3.5 mph - N/A   Overcast
9:55 AM 55.4 °F - 48.0 °F 76% 30.28 in 10.0 mi Variable 6.9 mph - N/A   Scattered Clouds
10:55 AM 59.2 °F - 48.6 °F 68% 30.28 in 10.0 mi WNW 9.2 mph - N/A   Scattered Clouds
11:55 AM 62.6 °F - 48.4 °F 60% 30.28 in 10.0 mi WNW 10.4 mph - N/A   Mostly Cloudy
12:55 PM 64.9 °F - 48.7 °F 56% 30.25 in 10.0 mi WNW 12.7 mph - N/A   Clear
1:55 PM 66.9 °F - 48.7 °F 52% 30.24 in 10.0 mi West 9.2 mph - N/A   Partly Cloudy
2:55 PM 68.5 °F - 48.4 °F 49% 30.22 in 10.0 mi NW 8.1 mph - N/A   Clear
3:07 PM 68.0 °F - 48.2 °F 49% 30.22 in 10.0 mi Variable 3.5 mph - N/A Thunderstorm Thunderstorm
3:14 PM 68.0 °F - 48.2 °F 49% 30.21 in 10.0 mi Variable 5.8 mph - N/A   Scattered Clouds
3:22 PM 68.0 °F - 48.2 °F 49% 30.22 in - West 8.1 mph - N/A   Mostly Cloudy
3:55 PM 66.7 °F - 46.8 °F 49% 30.22 in 10.0 mi NW 8.1 mph - N/A   Scattered Clouds
4:55 PM 65.8 °F - 44.6 °F 46% 30.23 in 10.0 mi North 9.2 mph - N/A   Scattered Clouds
5:55 PM 61.2 °F - 42.8 °F 51% 30.24 in 10.0 mi North 8.1 mph - N/A   Clear
6:55 PM 53.1 °F - 41.7 °F 65% 30.26 in 10.0 mi Calm Calm - N/A   Clear
7:55 PM 54.1 °F - 41.4 °F 62% 30.28 in 10.0 mi Variable 3.5 mph - N/A   Clear
8:55 PM 48.0 °F - 39.4 °F 72% 30.29 in 10.0 mi NW 4.6 mph - N/A   Clear
9:55 PM 49.1 °F - 36.9 °F 63% 30.31 in 10.0 mi Calm Calm - N/A   Partly Cloudy
10:55 PM 49.8 °F - 32.0 °F 50% 30.32 in 10.0 mi Calm Calm - N/A   Clear
11:55 PM 48.0 °F - 33.6 °F 57% 30.32 in 10.0 mi Calm Calm - N/A   Overcast